sat.trackr.live / text

‹ back to catalog

STARLINK-3525

NORAD 51733 · 2022-016V

PAYLOAD ACTIVE UNKNOWN

§ Identity

Operator
Country
US
Launch date
2022-02-21
Launch site
AFETR
Launch vehicle
Mass (kg)
RCS (m²)

Purposes: comms

External: N2YO · Heavens-Above · Gunter

§ Orbital elements

Epoch: 2026-05-24T21:55:54.511104Z

Period
95.44 min
Inclination
53.2118°
Eccentricity
0.0001323
Mean motion
15.08831882 rev/d
Perigee alt
538.9 km
Apogee alt
540.7 km
Semi-major
6,917.9 km
B*
2.3129e-5
RAAN
336.9468°
Arg perigee
82.9962°
Mean anomaly
277.1180°
Rev number
23,507

§ Raw data

STARLINK-35251 51733U 22016V   26144.91382536  .00000080  00000+0  23129-4 0  99922 51733  53.2118 336.9468 0001323  82.9962 277.1180 15.08831882235072

JSON: /api/v1/satellites/51733 · /tle

For live sub-satellite position, see the globe view (requires WebGL).

§ Visibility from observer

Set your observer location to see the next 7 days of passes ≥ 10°. The values pass through the URL so the page stays shareable.

No JS? Fill the form by hand. The geolocation button needs JavaScript.